Regional Weather Roundup
Issued by NWS

Home | Current Version | Previous Version | Graphics & Text | Print | Product List | Glossary On
Versions: 1 2 3 4 5 6 7 8 9 10 11 12 13 14 15 16 17 18 19 20 21 22 23 24 25 26 27 28 29 30 31 32 33 34 35 36 37 38 39 40 41 42 43 44 45 46 47 48 49 50
000
ASUS43 KMKX 201800
RWRWI

WISCONSIN REGIONAL WEATHER ROUNDUP
NATIONAL WEATHER SERVICE MILWAUKEE/SULLIVAN WI
1200 PM CST MON FEB 20 2017

NOTE: "FAIR" INDICATES FEW OR NO CLOUDS BELOW 12,000 FEET WITH NO
SIGNIFICANT WEATHER AND/OR OBSTRUCTIONS TO VISIBILITY.

WIZ001-002-006>008-014>016-023>028-201900-
NORTHWEST WISCONSIN

CITY           SKY/WX    TMP DP  RH WIND       PRES   REMARKS
SUPERIOR ARPT  CLOUDY    37  35  95 NE14G20   29.83F WCI  28
ASHLAND        CLOUDY    52  41  66 S10G18    29.85F
6HR MIN TEMP:  45; 6HR MAX TEMP:  52;

HAYWARD        CLOUDY    50  41  71 SE13G24   29.83F
6HR MIN TEMP:  47; 6HR MAX TEMP:  50;

SIREN          CLOUDY    48  40  74 SE13G18   29.79F
CUMBERLAND     CLOUDY    43  37  81 SE13      29.84S
RICE LAKE      CLOUDY    47  41  79 SE13      29.85F
CHETEK         CLOUDY    46  41  82 SE12      29.85F
LADYSMITH      CLOUDY    48  41  75 SE12      29.89F
6HR MIN TEMP:  43; 6HR MAX TEMP:  48;

EAU CLAIRE     NOT AVBL
MENOMONIE      RAIN      46  44  93 E10       29.83F
6HR MIN TEMP:  41; 6HR MAX TEMP:  47; 6HR PCP:  0.05;

NEW RICHMOND   RAIN      46  42  85 SE9       29.79F
OSCEOLA        LGT RAIN  48  44  88 SE12      29.81F
$$

WIZ003>005-009-010-017-018-201900-
NORTH CENTRAL WISCONSIN

CITY           SKY/WX    TMP DP  RH WIND       PRES   REMARKS
MANITOWISH WTR CLOUDY    45  37  75 S14       29.95F
ARBOR VITAE    CLOUDY    46  37  70 SE13G20   29.96F
WOODRUFF       CLOUDY    46  37  70 SE13G20   29.96F
RHINELANDER    CLOUDY    49  40  71 SE13G22   29.98F
6HR MIN TEMP:  38; 6HR MAX TEMP:  49;

EAGLE RIVER    CLOUDY    46  33  60 SE10      30.00F
LAND O LAKES   CLOUDY    48  35  61 SE9G17    30.00F
6HR MIN TEMP:  38; 6HR MAX TEMP:  48;

PHILLIPS       CLOUDY    47  39  75 SE10G18   29.90F
6HR MIN TEMP:  40; 6HR MAX TEMP:  47;

TOMAHAWK       CLOUDY    44  35  70 SE6       29.98F
MEDFORD        CLOUDY    44  36  72 SE12G20   29.93F
MERRILL        NOT AVBL
$$

WIZ029-030-035-036-043>047-201900-
CENTRAL WISCONSIN

CITY           SKY/WX    TMP DP  RH WIND       PRES   REMARKS
WAUSAU         CLOUDY    44  36  73 E12       29.96F
6HR MIN TEMP:  37; 6HR MAX TEMP:  44;

MOSINEE        CLOUDY    46  37  71 MISG      29.98
MARSHFIELD     CLOUDY    45  37  73 E13       29.91F
6HR MIN TEMP:  39; 6HR MAX TEMP:  45;

STEVENS POINT  PTSUNNY   45  38  75 E10       30.00F
WAUPACA        CLOUDY    54  44  69 E12       30.02F
6HR MIN TEMP:  35; 6HR MAX TEMP:  54;

WAUTOMA        CLOUDY    56  48  74 SE13      30.00F
6HR MIN TEMP:  34; 6HR MAX TEMP:  56;

WISC RAPIDS    CLOUDY    53  43  68 SE14G20   29.94F
6HR MIN TEMP:  41; 6HR MAX TEMP:  53;

CAMP DOUGLAS   NOT AVBL
$$

WIZ011>013-019>022-031-037>040-048>050-201900-
NORTHEAST WISCONSIN

CITY           SKY/WX    TMP DP  RH WIND       PRES   REMARKS
ANTIGO         CLOUDY    41  34  76 SE17      30.03F
SHAWANO        PTSUNNY   47  37  67 NE6       30.06F
6HR MIN TEMP:  33; 6HR MAX TEMP:  48;

OCONTO         CLOUDY    45  33  63 E6        30.11S
6HR MIN TEMP:  32; 6HR MAX TEMP:  46;

STURGEON BAY   MOSUNNY   45  33  63 SE13      30.11F
6HR MIN TEMP:  36; 6HR MAX TEMP:  46;

GREEN BAY      CLOUDY    50  40  68 SE10      30.07F
6HR MIN TEMP:  34; 6HR MAX TEMP:  50;

MANITOWOC      NOT AVBL
APPLETON       PTSUNNY   48  37  66 SE13      30.03F
CLINTONVILLE   CLOUDY    48  37  66 E8        30.03F
OSHKOSH        CLOUDY    53  44  71 SE13      30.03F
6HR MIN TEMP:  40; 6HR MAX TEMP:  54;

$$

WIZ032>034-041-042-053>061-201900-
SOUTHWEST WISCONSIN

CITY           SKY/WX    TMP DP  RH WIND       PRES   REMARKS
LA CROSSE      LGT RAIN  53  48  83 S6        29.87F
6HR MIN TEMP:  51; 6HR MAX TEMP:  58; 6HR PCP: TRACE;

SPARTA         PTSUNNY   58  51  77 SE10      29.90F
6HR MIN TEMP:  48; 6HR MAX TEMP:  59;

VIROQUA        CLOUDY    52  50  93 SE12G17   29.90F
6HR MIN TEMP:  46; 6HR MAX TEMP:  53;

BOSCOBEL       CLOUDY    55  49  80 VRB3      29.93F HAZE
6HR MIN TEMP:  46; 6HR MAX TEMP:  55;

PRAIRIE DU CHI CLOUDY    53  48  85 SE10      29.89F HAZE
6HR MIN TEMP:  48; 6HR MAX TEMP:  53;

PLATTEVILLE    PTSUNNY   55  52  92 SE16      29.94F
$$

WIZ056-057-062-063-064-067-068-201900-
SOUTH CENTRAL WISCONSIN

CITY           SKY/WX    TMP DP  RH WIND       PRES   REMARKS
REEDSBURG      CLOUDY    55  51  85 SE10      29.93F
6HR MIN TEMP:  40; 6HR MAX TEMP:  55;

BARABOO/DELLS  CLOUDY    54  47  77 SE7       29.96F HAZE
LONE ROCK      NOT AVBL
MINERAL POINT  CLOUDY    55  52  88 SE14      29.94F
MADISON        CLOUDY    58  49  72 S16       29.98F
6HR MIN TEMP:  42; 6HR MAX TEMP:  58;

MIDDLETON      CLOUDY    59  50  71 S12       29.98F
6HR MIN TEMP:  41; 6HR MAX TEMP:  59;

WATERTOWN      CLOUDY    56  49  78 SE10      30.03F
MONROE         CLOUDY    57  50  77 SE17      29.98F
JANESVILLE     MOSUNNY   63  48  59 SE14G20   30.00F
$$

WIZ051-052-058>065-066-070>072-201900-
SOUTHEAST WISCONSIN

CITY           SKY/WX    TMP DP  RH WIND       PRES   REMARKS
MILWAUKEE      CLOUDY    50  42  74 SE15      30.07F HAZE
6HR MIN TEMP:  37; 6HR MAX TEMP:  54;

WAUKESHA       MOSUNNY   54  45  71 SE10      30.06F FOG
MILWAUKEE/TIMM PTSUNNY   54  41  62 E8        30.07F
RACINE         CLOUDY    47  41  80 SE15      30.09F HAZE
6HR MIN TEMP:  39; 6HR MAX TEMP:  48;

KENOSHA        CLOUDY    55  45  68 SE9       30.06F HAZE
6HR MIN TEMP:  35; 6HR MAX TEMP:  55;

FOND DU LAC    CLOUDY    55  43  63 SE14      30.03F
6HR MIN TEMP:  42; 6HR MAX TEMP:  55;

SHEBOYGAN      CLOUDY    45  36  70 SE12      30.10F
6HR MIN TEMP:  31; 6HR MAX TEMP:  46; 6HR PCP: TRACE;

WEST BEND      CLOUDY    52  43  71 E10       30.07F
JUNEAU         CLOUDY    56  48  76 SE12      30.05S
$$

LSZ147-162-201900-
LAKE SUPERIOR

STATION/POSITION TIME  TEMP    WIND        PRES    WAVE
                       AIR SEA DIR/SP/G            HT/PER
                 (UTC) (F)     (DEG/KT/KT) (MB)    (FT/S)
DEVILS ISLAND    1700   44      70/  8/  8 1012.7F
PORT WING        1740   35      50/  7/ 16 1010.8F
SAXON HARBOR     1730   53     170/ 10/ 16 1010.5F
$$

LMZ867-665-643>646-201900-
LAKE MICHIGAN

STATION/POSITION TIME  TEMP    WIND        PRES    WAVE
                       AIR SEA DIR/SP/G            HT/PER
                 (UTC) (F)     (DEG/KT/KT) (MB)    (FT/S)
CHAMBERS ISLAND  1740   45      80/  6/ 12 1020.0F
NORTHPORT PIER   1740   38      CALM  /  1 1021.0F
SISTER BAY       1735   50     180/ 13/ 17   N/A
KEWAUNEE LAKESHO 1730   39     180/  5/  6 1019.6F
SHEBOYGAN LAKESH 1700   39     170/  6/  7 1020.3F
PORT WASHINGTON  1730   42     100/  1/  3 1020.7F
MILWAUKEE LAKESH 1730   40     140/ 11/ 12   N/A
KENOSHA   LAKESH 1700   40     170/ 13/ 14 1019.3
$$

TC  - TEMPERATURE IN CELSIUS
VSB - VISIBILITY IN STATUTE MILES
WCI - WIND CHILL INDEX
HX  - HEAT INDEX




USA.gov is the U.S. government's official web portal to all federal, state and local government web resources and services.